Total_Precipitation_Accumulation
0.06 0.11 0.19 0.16 0.12 0.20 0.21 0.22 0.31 0.37 0.31 0.40 0.56 0.74 1.01 1.16 1.42 1.70 1.69 1.65 1.70 1.98 2.29 2.49 2.88 3.29 3.57 3.75 3.87 4.21 4.38 4.15 3.70 3.33 2.88 2.79 2.78 2.54 2.33 2.24 2.10 2.28 2.19 2.40
0.07 0.10 0.10 0.07 0.07 0.12 0.17 0.19 0.30 0.37 0.32 0.38 0.56 0.92 1.14 1.20 1.24 1.40 1.50 1.43 1.52 1.84 1.93 2.01 2.15 2.50 2.73 2.97 3.27 3.61 3.86 3.72 3.15 2.94 2.79 2.72 2.69 2.50 2.54 2.45 2.44 2.18 2.14 2.36
0.07 0.08 0.07 0.06 0.06 0.09 0.16 0.17 0.22 0.31 0.36 0.48 0.63 1.29 1.40 1.19 1.13 1.06 1.20 1.26 1.25 1.45 1.67 1.77 1.79 1.90 2.17 2.77 2.99 2.90 3.17 3.36 3.11 3.03 2.97 2.90 2.87 2.67 2.77 2.76 2.65 2.26 2.07 2.06
0.05 0.05 0.05 0.06 0.07 0.08 0.17 0.14 0.14 0.20 0.29 0.60 0.71 1.42 1.54 1.31 1.33 1.09 1.02 1.07 1.01 1.01 1.27 1.47 1.44 1.50 1.74 2.04 2.35 2.71 3.04 3.13 3.07 2.97 2.79 2.70 2.52 2.48 2.50 2.51 2.51 2.34 2.19 2.06
0.05 0.04 0.04 0.06 0.06 0.07 0.10 0.10 0.11 0.19 0.31 0.56 0.71 1.15 1.43 1.29 1.54 1.20 0.85 0.74 0.70 0.68 0.82 1.00 1.14 1.27 1.35 1.50 1.91 2.48 2.96 3.19 3.09 2.78 2.66 2.79 2.64 2.55 2.53 2.43 2.62 2.44 2.28 2.11
0.05 0.04 0.04 0.04 0.05 0.05 0.06 0.10 0.21 0.36 0.54 0.97 0.92 1.00 1.35 1.17 1.02 0.80 0.65 0.57 0.56 0.60 0.64 0.72 0.85 1.08 1.23 1.30 1.58 2.05 2.49 2.80 2.88 2.68 2.58 2.66 2.76 2.75 2.62 2.48 2.47 2.27 2.23 2.16
0.09 0.09 0.06 0.04 0.05 0.06 0.06 0.11 0.42 0.72 0.96 1.11 0.73 0.93 1.30 0.88 0.71 0.64 0.61 0.60 0.53 0.50 0.63 0.75 0.85 0.99 1.03 1.09 1.35 1.66 1.90 2.12 2.35 2.51 2.57 2.50 2.67 2.76 2.54 2.31 2.37 2.32 2.15 2.15
0.12 0.19 0.10 0.06 0.06 0.07 0.07 0.10 0.27 0.47 0.58 0.70 0.72 1.38 1.29 0.72 0.59 0.53 0.50 0.49 0.50 0.61 0.68 0.76 0.93 1.00 0.95 0.99 1.23 1.45 1.65 1.90 2.18 2.37 2.43 2.37 2.31 2.23 2.19 2.34 2.24 2.24 2.21 2.15
0.06 0.09 0.08 0.07 0.06 0.07 0.07 0.09 0.14 0.22 0.29 0.55 0.88 1.07 0.82 0.53 0.52 0.52 0.48 0.51 0.56 0.67 0.81 0.87 1.02 1.06 0.96 1.01 1.23 1.39 1.59 1.76 1.91 2.21 2.38 2.28 2.22 2.05 2.02 2.08 2.07 2.02 2.17 2.13
0.04 0.06 0.06 0.06 0.06 0.08 0.08 0.09 0.14 0.17 0.24 0.43 0.74 1.00 1.05 0.79 0.67 0.57 0.56 0.59 0.61 0.74 0.92 1.05 1.06 1.07 1.03 1.10 1.33 1.39 1.52 1.61 1.65 1.79 1.86 1.76 1.97 1.98 2.09 2.07 1.98 1.90 1.91 1.96
0.04 0.04 0.05 0.06 0.07 0.10 0.10 0.09 0.09 0.12 0.15 0.28 0.61 0.81 0.77 0.75 0.73 0.60 0.56 0.64 0.73 0.75 0.91 1.02 0.99 0.97 0.94 1.00 1.14 1.16 1.31 1.48 1.53 1.65 1.70 1.75 1.86 1.93 1.98 2.03 2.00 2.00 2.01 2.03
0.04 0.05 0.05 0.09 0.10 0.09 0.12 0.14 0.13 0.13 0.12 0.19 0.32 0.48 0.46 0.55 0.64 0.60 0.63 0.74 0.81 0.65 0.72 0.94 1.01 1.03 0.83 0.88 0.97 1.09 1.27 1.40 1.47 1.64 1.78 1.83 1.98 2.03 1.98 2.03 2.22 2.23 2.17 2.14
0.04 0.05 0.09 0.16 0.20 0.14 0.10 0.10 0.13 0.14 0.14 0.14 0.23 0.41 0.39 0.46 0.59 0.60 0.70 0.81 0.78 0.75 0.75 0.89 0.98 0.90 0.81 0.82 0.90 0.94 1.08 1.24 1.36 1.51 1.67 1.90 1.99 2.05 2.23 2.41 2.58 2.60 2.49 2.43
0.04 0.04 0.08 0.17 0.26 0.29 0.22 0.14 0.14 0.14 0.15 0.14 0.19 0.32 0.39 0.52 0.63 0.67 0.74 0.84 0.78 0.73 0.71 0.72 0.88 0.92 0.83 0.80 0.84 0.89 1.03 1.18 1.36 1.64 1.85 2.04 2.27 2.44 2.60 2.62 2.71 2.72 2.68 2.66
0.03 0.02 0.04 0.07 0.12 0.18 0.19 0.14 0.13 0.12 0.11 0.14 0.19 0.31 0.42 0.52 0.62 0.72 0.77 0.73 0.73 0.67 0.68 0.82 0.94 1.09 1.07 0.99 0.92 0.95 1.18 1.41 1.64 1.93 2.06 2.13 2.25 2.44 2.71 2.95 2.95 2.88 2.80 2.71
0.06 0.05 0.06 0.08 0.11 0.14 0.12 0.12 0.12 0.10 0.10 0.12 0.18 0.32 0.45 0.56 0.62 0.58 0.63 0.62 0.66 0.74 0.80 0.95 1.09 1.22 1.30 1.33 1.30 1.33 1.48 1.75 2.06 2.38 2.52 2.67 2.77 2.89 3.03 3.13 3.19 3.25 3.21 3.14
0.16 0.16 0.16 0.15 0.16 0.17 0.16 0.15 0.14 0.13 0.14 0.16 0.24 0.35 0.49 0.63 0.63 0.70 0.72 0.70 0.79 0.88 0.96 1.08 1.19 1.26 1.40 1.43 1.51 1.71 1.88 2.11 2.35 2.54 2.66 2.79 2.89 3.06 3.22 3.31 3.38 3.25 3.22 3.19
0.37 0.34 0.27 0.23 0.28 0.32 0.22 0.25 0.27 0.29 0.31 0.34 0.37 0.44 0.54 0.66 0.68 0.78 0.85 0.83 0.81 0.92 1.11 1.16 1.23 1.33 1.43 1.55 1.73 1.91 2.06 2.18 2.49 2.72 2.83 2.88 2.94 3.03 3.24 3.46 3.39 3.23 3.22 3.18
0.44 0.51 0.48 0.37 0.37 0.38 0.38 0.34 0.35 0.46 0.58 0.52 0.66 0.74 0.71 0.76 0.83 0.88 0.91 1.08 1.05 1.00 1.10 1.20 1.31 1.40 1.52 1.58 1.64 1.65 1.77 1.97 2.22 2.46 2.65 2.67 2.82 3.01 3.12 3.16 3.19 3.29 3.28 3.10
0.37 0.42 0.51 0.53 0.56 0.56 0.56 0.52 0.41 0.48 0.87 0.84 0.92 1.01 0.97 1.00 1.27 1.20 0.93 0.93 1.05 1.10 1.13 1.25 1.40 1.45 1.44 1.47 1.52 1.60 1.76 1.98 2.19 2.41 2.62 2.80 2.96 3.12 3.16 3.18 3.33 3.40 3.39 3.35
0.58 0.58 0.58 0.60 0.66 0.65 0.55 0.50 0.52 0.90 1.21 1.16 1.23 1.25 1.18 1.22 1.30 1.24 1.07 1.00 1.00 1.05 1.08 1.19 1.37 1.53 1.54 1.50 1.68 1.88 2.03 2.18 2.34 2.47 2.57 2.71 2.91 3.15 3.41 3.59 3.53 3.54 3.52 3.44
0.81 0.81 0.80 0.83 1.04 1.16 0.84 0.76 1.01 1.21 0.96 1.01 1.22 1.44 1.45 1.38 1.30 1.24 1.15 1.11 1.04 0.97 1.02 1.22 1.37 1.51 1.65 1.74 1.89 2.07 2.12 2.19 2.40 2.61 2.70 2.78 2.98 3.05 3.20 3.50 3.52 3.45 3.44 3.36
0.93 1.04 1.14 1.19 1.36 1.23 1.04 1.05 0.99 1.07 1.24 1.30 1.41 1.63 1.67 1.51 1.38 1.40 1.34 1.25 1.17 1.09 1.11 1.25 1.39 1.54 1.62 1.82 2.02 2.18 2.26 2.32 2.43 2.58 2.75 2.95 3.06 3.12 3.26 3.43 3.49 3.48 3.39 3.26
0.99 0.85 1.08 1.41 1.54 1.35 1.18 1.14 1.09 1.15 1.34 1.43 1.42 1.46 1.51 1.49 1.44 1.58 1.62 1.47 1.44 1.40 1.35 1.39 1.49 1.59 1.66 1.75 1.97 2.18 2.30 2.34 2.46 2.54 2.61 2.77 2.93 3.07 3.24 3.27 3.13 3.01 2.88 2.82
1.10 1.11 1.32 1.74 1.90 1.79 1.58 1.43 1.33 1.35 1.31 1.39 1.34 1.38 1.39 1.45 1.47 1.55 1.70 1.72 1.65 1.54 1.45 1.49 1.60 1.72 1.77 1.79 1.87 2.11 2.31 2.40 2.44 2.56 2.63 2.62 2.64 2.72 2.90 2.98 2.94 2.81 2.65 2.51
1.23 1.46 1.84 2.25 2.16 2.22 2.04 1.67 1.48 1.55 1.54 1.49 1.44 1.51 1.55 1.55 1.54 1.58 1.74 1.77 1.75 1.66 1.58 1.61 1.66 1.71 1.75 1.86 1.96 2.07 2.35 2.62 2.69 2.67 2.53 2.45 2.36 2.35 2.43 2.47 2.51 2.63 2.52 2.52